Flag for U.S.A. Weather past 2 weeks in Bismarck, North Dakota, U.S.A.

Now
62 °F

Partly sunny.


Feels Like: 62 °F
Forecast: 38 / 61 °F
Wind: 10 mph from West

Location: Bismarck Municipal Airport

Current Time: Oct 24, 2014 at 7:56:26 PM

Latest Report: Oct 24, 2014 at 6:52 PM


Visibility: 10 mi

Pressure: 29.99 "Hg

Humidity: 37%

Dew point: 35 °F

Location of BismarckLocation

Historic Weather in Bismarck — Graph

°F

Bismarck temperature yesterday

Maximum temperature yesterday: 73 °F (at 2:52 PM)
Minimum temperature yesterday: 31 °F (at 6:52 AM)
Average temperature yesterday: 51 °F

Past Weeks' High & Low Weather Summary

 TemperatureHumidityPressure
High81 °F (Oct 21, 3:52 PM)97% (Oct 19, 6:52 AM)30.37 "Hg (Oct 19, 6:52 AM)
Low22 °F (Oct 10, 5:52 AM)19% (Oct 23, 2:52 PM)29.46 "Hg (Oct 16, 2:52 AM)
Average52 °F61%29.93 "Hg
* Reported Oct 9 6:52 PM — Oct 24 6:52 PM, Bismarck, Weather by CustomWeather, © 2014

Note: Actual official high and low records may vary slightly from our data, if they occured in-between our weather recording intervals... More about our weather records

Advertising

Bismarck weather history for previous 24 hours

 ConditionsComfort  
Time TempWeatherWind HumidityBarometerVisibility
6:52 PM
Oct 24
62 °FPartly sunny.10 mph37%29.99 "Hg10 mi
5:52 PM64 °FPartly sunny.14 mph33%29.97 "Hg10 mi
4:52 PM66 °FPassing clouds.16 mph33%29.95 "Hg10 mi
3:52 PM68 °FSunny.20 mph30%29.92 "Hg10 mi
2:52 PM73 °FSunny.18 mph26%29.89 "Hg10 mi
1:52 PM72 °FSunny.17 mph30%29.90 "Hg10 mi
12:52 PM70 °FSunny.14 mph34%29.91 "Hg10 mi
11:52 AM64 °FScattered clouds.7 mph40%29.92 "Hg10 mi
10:52 AM59 °FSunny.7 mph46%29.90 "Hg10 mi
9:52 AM48 °FSunny.No wind61%29.90 "Hg10 mi
8:52 AM37 °FClear.No wind82%29.89 "Hg10 mi
7:52 AM39 °FClear.3 mph79%29.87 "Hg10 mi
6:52 AM39 °FClear.No wind76%29.85 "Hg10 mi
5:52 AM41 °FClear.No wind70%29.84 "Hg10 mi
4:52 AM40 °FClear.No wind70%29.82 "Hg10 mi
3:52 AM44 °FClear.No wind63%29.82 "Hg10 mi
2:52 AM41 °FClear.3 mph70%29.82 "Hg10 mi
1:52 AM50 °FClear.6 mph50%29.82 "Hg10 mi
12:52 AM51 °FClear.8 mph48%29.82 "Hg10 mi
11:52 PM
Oct 23
50 °FClear.5 mph50%29.83 "Hg10 mi
10:52 PM50 °FClear.5 mph50%29.83 "Hg10 mi
9:52 PM52 °FClear.6 mph49%29.85 "Hg10 mi
8:52 PM56 °FClear.3 mph39%29.85 "Hg10 mi
7:52 PM60 °FClear.6 mph32%29.84 "Hg10 mi
Weather by CustomWeather, © 2014

See weather overviewHow to use our weather pages